| time (UTC) | temp F | wind direction | speed MPH | gust MPH | rain 1hr in | rain 24hr in | rain mn in | humidity % | barometer mb |
| 20260906224513 | 67 | 94 | 0.0 | 1.0 | 0.00 | 0.01 | 0.01 | 81 | 1014.9 |
| 20260906223013 | 67 | 246 | 0.0 | 0.0 | 0.00 | 0.01 | 0.01 | 81 | 1014.9 |
| 20260906221512 | 68 | 246 | 0.0 | 0.0 | 0.00 | 0.01 | 0.01 | 79 | 1014.8 |
| 20260906220016 | 69 | 246 | 0.0 | 0.0 | 0.00 | 0.01 | 0.01 | 78 | 1014.6 |
| 20260906214511 | 69 | 246 | 0.0 | 0.0 | 0.00 | 0.01 | 0.01 | 78 | 1014.5 |
| 20260906213009 | 70 | 5 | 0.0 | 0.0 | 0.00 | 0.01 | 0.01 | 76 | 1014.5 |
| 20260906211509 | 71 | 349 | 0.0 | 1.0 | 0.00 | 0.01 | 0.01 | 74 | 1014.4 |
| 20260906210011 | 72 | 32 | 0.0 | 4.0 | 0.00 | 0.01 | 0.01 | 74 | 1014.1 |
| 20260906204507 | 72 | 192 | 0.0 | 3.0 | 0.00 | 0.01 | 0.01 | 76 | 1014.1 |
| 20260906203021 | 73 | 58 | 0.0 | 3.0 | 0.00 | 0.01 | 0.01 | 73 | 1014.0 |
| 20260906201507 | 74 | 324 | 0.0 | 2.0 | 0.00 | 0.01 | 0.01 | 68 | 1013.8 |
| 20260906200005 | 75 | 40 | 0.0 | 1.0 | 0.00 | 0.01 | 0.01 | 59 | 1013.6 |
| 20260906194505 | 76 | 28 | 0.0 | 1.0 | 0.00 | 0.01 | 0.01 | 56 | 1013.6 |
| 20260906193006 | 76 | 18 | 0.0 | 0.0 | 0.00 | 0.01 | 0.01 | 60 | 1013.7 |
| 20260906191504 | 75 | 33 | 0.0 | 2.0 | 0.00 | 0.01 | 0.01 | 62 | 1013.6 |
| 20260906190003 | 75 | 40 | 0.0 | 0.0 | 0.00 | 0.01 | 0.01 | 60 | 1013.7 |
| 20260906184502 | 76 | 78 | 0.0 | 2.0 | 0.00 | 0.01 | 0.01 | 59 | 1013.7 |
| 20260906183110 | 76 | 213 | 0.0 | 5.0 | 0.00 | 0.01 | 0.01 | 65 | 1013.7 |
| 20260906181602 | 75 | 300 | 0.0 | 2.0 | 0.00 | 0.01 | 0.01 | 63 | 1013.8 |
| 20260906180118 | 75 | 90 | 0.0 | 4.0 | 0.00 | 0.01 | 0.01 | 68 | 1014.0 |
| 20260906174614 | 74 | 61 | 0.0 | 0.0 | 0.00 | 0.01 | 0.01 | 67 | 1014.0 |
| 20260906173052 | 73 | 61 | 0.0 | 0.0 | 0.00 | 0.01 | 0.01 | 70 | 1014.1 |
| 20260906171609 | 74 | 63 | 0.0 | 0.0 | 0.00 | 0.01 | 0.01 | 69 | 1014.2 |
| 20260906170059 | 74 | 200 | 0.0 | 0.0 | 0.00 | 0.01 | 0.01 | 71 | 1014.2 |
| 20260906164544 | 72 | 355 | 0.0 | 4.0 | 0.00 | 0.01 | 0.01 | 75 | 1014.3 |
| 20260906163040 | 70 | 360 | 0.0 | 1.0 | 0.00 | 0.01 | 0.01 | 78 | 1014.4 |
| 20260906161549 | 69 | 360 | 0.0 | 2.0 | 0.00 | 0.01 | 0.01 | 78 | 1014.4 |
| 20260906160037 | 69 | 360 | 0.0 | 2.0 | 0.00 | 0.01 | 0.01 | 78 | 1014.5 |
| 20260906154543 | 69 | 360 | 0.0 | 5.0 | 0.00 | 0.01 | 0.01 | 79 | 1014.5 |
| 20260906153042 | 68 | 355 | 0.0 | 0.0 | 0.00 | 0.01 | 0.01 | 81 | 1014.5 |
| 20260906151531 | 68 | 360 | 1.0 | 4.0 | 0.00 | 0.01 | 0.01 | 81 | 1014.5 |
| 20260906150036 | 68 | 338 | 0.0 | 4.0 | 0.00 | 0.01 | 0.01 | 80 | 1014.5 |
| 20260906144530 | 68 | 32 | 0.0 | 2.0 | 0.00 | 0.01 | 0.01 | 80 | 1014.4 |
| 20260906143023 | 67 | 28 | 0.0 | 3.0 | 0.00 | 0.01 | 0.01 | 82 | 1014.3 |
| 20260906141520 | 66 | 24 | 0.0 | 4.0 | 0.00 | 0.01 | 0.01 | 83 | 1014.1 |
| 20260906140017 | 66 | 5 | 1.0 | 8.0 | 0.00 | 0.01 | 0.01 | 84 | 1014.1 |
| 20260906134515 | 65 | 26 | 0.0 | 0.0 | 0.00 | 0.01 | 0.01 | 88 | 1014.2 |
| 20260906133013 | 64 | 36 | 0.0 | 2.0 | 0.00 | 0.01 | 0.01 | 89 | 1014.1 |
| 20260906131511 | 64 | 28 | 0.0 | 0.0 | 0.00 | 0.01 | 0.01 | 91 | 1014.0 |
| 20260906130013 | 63 | 28 | 0.0 | 0.0 | 0.00 | 0.01 | 0.01 | 92 | 1013.9 |
| 20260906124510 | 63 | 28 | 0.0 | 0.0 | 0.00 | 0.01 | 0.01 | 92 | 1013.9 |
| 20260906123016 | 63 | 28 | 0.0 | 0.0 | 0.00 | 0.01 | 0.01 | 93 | 1013.8 |
| 20260906121518 | 63 | 28 | 0.0 | 0.0 | 0.00 | 0.01 | 0.01 | 93 | 1013.8 |
| 20260906120005 | 63 | 28 | 0.0 | 0.0 | 0.00 | 0.01 | 0.01 | 93 | 1013.6 |
| 20260906114502 | 62 | 28 | 0.0 | 0.0 | 0.00 | 0.01 | 0.01 | 93 | 1013.5 |
| 20260906113100 | 62 | 28 | 0.0 | 0.0 | 0.00 | 0.01 | 0.01 | 93 | 1013.3 |
| 20260906111558 | 62 | 28 | 0.0 | 0.0 | 0.00 | 0.01 | 0.01 | 93 | 1013.1 |
| 20260906110057 | 62 | 28 | 0.0 | 1.0 | 0.00 | 0.01 | 0.01 | 93 | 1013.0 |
| 20260906104553 | 62 | 28 | 0.0 | 0.0 | 0.00 | 0.01 | 0.01 | 92 | 1012.8 |
| 20260906103051 | 62 | 28 | 0.0 | 0.0 | 0.00 | 0.01 | 0.01 | 92 | 1012.6 |
| 20260906101548 | 62 | 28 | 0.0 | 0.0 | 0.01 | 0.01 | 0.01 | 92 | 1012.3 |
| 20260906100046 | 63 | 28 | 0.0 | 0.0 | 0.01 | 0.01 | 0.01 | 92 | 1012.1 |
| 20260906094557 | 63 | 28 | 0.0 | 0.0 | 0.01 | 0.01 | 0.01 | 92 | 1012.2 |
| 20260906093049 | 63 | 28 | 0.0 | 0.0 | 0.01 | 0.01 | 0.01 | 92 | 1012.1 |
| 20260906091542 | 63 | 28 | 0.0 | 0.0 | 0.00 | 0.00 | 0.00 | 92 | 1011.9 |
| 20260906090050 | 63 | 28 | 0.0 | 0.0 | 0.00 | 0.00 | 0.00 | 92 | 1011.7 |
| 20260906084542 | 63 | 28 | 0.0 | 0.0 | 0.00 | 0.00 | 0.00 | 92 | 1011.7 |
| 20260906083046 | 63 | 28 | 0.0 | 0.0 | 0.00 | 0.00 | 0.00 | 91 | 1011.7 |
| 20260906081538 | 63 | 28 | 0.0 | 0.0 | 0.00 | 0.00 | 0.00 | 91 | 1011.3 |
| 20260906080044 | 63 | 28 | 0.0 | 0.0 | 0.00 | 0.00 | 0.00 | 91 | 1011.4 |
| 20260906074535 | 64 | 28 | 0.0 | 0.0 | 0.00 | 0.00 | 0.00 | 91 | 1011.5 |
| 20260906073034 | 64 | 29 | 0.0 | 0.0 | 0.00 | 0.00 | 0.00 | 91 | 1011.4 |
| 20260906071533 | 64 | 28 | 0.0 | 0.0 | 0.00 | 0.00 | 0.00 | 91 | 1011.3 |
| 20260906070032 | 64 | 29 | 0.0 | 2.0 | 0.00 | 0.00 | 0.00 | 91 | 1011.5 |
| 20260906064532 | 64 | 29 | 0.0 | 0.0 | 0.00 | 0.00 | 0.00 | 91 | 1011.3 |
| 20260906063030 | 64 | 29 | 0.0 | 0.0 | 0.00 | 0.00 | 0.00 | 91 | 1011.5 |
| 20260906061530 | 64 | 29 | 0.0 | 0.0 | 0.00 | 0.00 | 0.00 | 91 | 1011.7 |
| 20260906060029 | 64 | 29 | 0.0 | 1.0 | 0.00 | 0.00 | 0.00 | 90 | 1011.7 |
| 20260906054528 | 64 | 29 | 0.0 | 0.0 | 0.00 | 0.00 | 0.00 | 89 | 1011.7 |
| 20260906053026 | 64 | 29 | 0.0 | 0.0 | 0.00 | 0.00 | 0.00 | 89 | 1011.7 |
| 20260906051525 | 65 | 29 | 0.0 | 0.0 | 0.00 | 0.00 | 0.00 | 88 | 1011.7 |
| 20260906050024 | 65 | 29 | 0.0 | 0.0 | 0.00 | 0.00 | 0.00 | 88 | 1011.6 |
| 20260906044523 | 65 | 29 | 0.0 | 1.0 | 0.00 | 0.00 | 0.00 | 87 | 1011.6 |
| 20260906043029 | 65 | 29 | 0.0 | 0.0 | 0.00 | 0.00 | 0.00 | 87 | 1011.5 |
| 20260906041521 | 65 | 29 | 0.0 | 0.0 | 0.00 | 0.00 | 0.00 | 86 | 1011.6 |
| 20260906040021 | 65 | 29 | 0.0 | 2.0 | 0.00 | 0.00 | 0.00 | 85 | 1011.6 |
| 20260906034532 | 65 | 30 | 0.0 | 0.0 | 0.00 | 0.00 | 0.00 | 85 | 1011.5 |
| 20260906033018 | 65 | 30 | 0.0 | 0.0 | 0.00 | 0.00 | 0.00 | 84 | 1011.4 |
| 20260906031525 | 65 | 30 | 0.0 | 0.0 | 0.00 | 0.00 | 0.00 | 83 | 1011.2 |
| 20260906030016 | 66 | 30 | 0.0 | 2.0 | 0.00 | 0.00 | 0.00 | 82 | 1011.2 |
| 20260906024515 | 66 | 30 | 0.0 | 2.0 | 0.00 | 0.00 | 0.00 | 81 | 1011.3 |
| 20260906023013 | 67 | 29 | 0.0 | 0.0 | 0.00 | 0.00 | 0.00 | 81 | 1011.0 |
| 20260906021513 | 67 | 29 | 1.0 | 3.0 | 0.00 | 0.00 | 0.00 | 81 | 1011.0 |
| 20260906020012 | 67 | 29 | 0.0 | 3.0 | 0.00 | 0.00 | 0.00 | 80 | 1011.0 |
| 20260906014512 | 67 | 13 | 0.0 | 0.0 | 0.00 | 0.00 | 0.00 | 80 | 1011.0 |
| 20260906013011 | 67 | 13 | 0.0 | 1.0 | 0.00 | 0.00 | 0.00 | 79 | 1010.9 |
| 20260906011510 | 67 | 12 | 0.0 | 0.0 | 0.00 | 0.00 | 0.00 | 78 | 1010.8 |
| 20260906010009 | 68 | 19 | 0.0 | 0.0 | 0.00 | 0.00 | 0.00 | 77 | 1010.7 |
| 20260906004506 | 68 | 19 | 0.0 | 0.0 | 0.00 | 0.00 | 0.00 | 76 | 1010.5 |
| 20260906003005 | 68 | 19 | 0.0 | 0.0 | 0.00 | 0.00 | 0.00 | 75 | 1010.4 |
| 20260906001504 | 68 | 19 | 0.0 | 0.0 | 0.00 | 0.00 | 0.00 | 75 | 1010.2 |
| 20260906000002 | 69 | 19 | 0.0 | 0.0 | 0.00 | 0.00 | 0.00 | 73 | 1010.0 |
| 20260905234503 | 70 | 19 | 0.0 | 0.0 | 0.00 | 0.00 | 0.00 | 72 | 1009.9 |
| 20260905233101 | 70 | 19 | 0.0 | 0.0 | 0.00 | 0.00 | 0.00 | 72 | 1009.9 |
| 20260905231607 | 71 | 19 | 0.0 | 0.0 | 0.00 | 0.00 | 0.00 | 71 | 1009.8 |